FW8582 Weather Reports


time (UTC)temp
C
wind
direction
speed
KPH
gust
KPH
rain 1hr
cm
rain 24hr
cm
rain mn
cm
humidity
%
barometer
mb
20260503031545 7 280 3.2 8.0 0.00 0.15 0.15 96 1010.3
20260503030051 7 283 1.6 4.8 0.00 0.15 0.15 98 1010.1
20260503024540 7 295 1.6 3.2 0.00 0.15 0.15 98 1010.2
20260503023041 7 0 0.0 0.0 0.00 0.15 0.15 97 1010.0
20260503021545 7 0 0.0 0.0 0.00 0.15 0.15 97 1010.1
20260503020046 7 188 0.0 0.0 0.00 0.15 0.15 97 1010.3
20260503014548 7 0 0.0 0.0 0.00 0.15 0.15 96 1010.2
20260503013041 7 0 0.0 0.0 0.00 0.15 0.15 96 1010.3
20260503011540 7 0 0.0 0.0 0.00 0.15 0.15 96 1010.5
20260503010046 7 0 0.0 0.0 0.00 0.15 0.15 95 1010.3
20260503004545 8 0 0.0 0.0 0.00 0.15 0.15 95 1010.2
20260503003043 8 0 0.0 0.0 0.00 0.15 0.15 94 1010.1
20260503001543 8 0 0.0 0.0 0.00 0.15 0.15 94 1009.9
20260503000043 8 0 0.0 0.0 0.00 0.15 0.15 93 1009.9
20260502234547 8 0 0.0 1.6 0.00 0.15 0.15 93 1010.1
20260502233043 8 160 0.0 1.6 0.00 0.15 0.15 92 1010.0
20260502231552 8 0 0.0 1.6 0.00 0.15 0.15 92 1010.1
20260502230045 9 135 0.0 3.2 0.00 0.15 0.15 92 1010.0
20260502224542 9 188 0.0 3.2 0.00 0.15 0.15 92 1010.1
20260502223043 9 170 0.0 4.8 0.00 0.15 0.15 91 1010.0
20260502221540 9 231 1.6 4.8 0.00 0.15 0.15 90 1010.0
20260502220052 9 0 0.0 1.6 0.00 0.15 0.15 91 1009.9
20260502214545 9 117 0.0 4.8 0.00 0.15 0.15 91 1009.9
20260502213045 9 0 0.0 8.0 0.00 0.15 0.15 91 1009.9
20260502211546 9 0 0.0 8.0 0.00 0.15 0.15 91 1009.9
20260502210046 9 256 1.6 6.4 0.00 0.15 0.15 91 1009.9
20260502204549 9 274 3.2 12.9 0.00 0.15 0.15 91 1009.9
20260502203051 9 114 3.2 9.7 0.00 0.15 0.15 91 1009.9
20260502201546 9 157 1.6 9.7 0.00 0.15 0.15 91 1010.0
20260502200045 9 205 3.2 11.3 0.00 0.15 0.15 91 1010.3
20260502194543 8 0 3.2 9.7 0.00 0.15 0.15 92 1010.4
20260502193041 8 127 3.2 11.3 0.00 0.15 0.15 92 1010.8
20260502191540 8 220 3.2 11.3 0.00 0.15 0.15 92 1010.7
20260502190101 8 160 3.2 9.7 0.00 0.15 0.15 93 1010.9
20260502184555 8 103 4.8 11.3 0.03 0.15 0.15 94 1010.9
20260502183044 8 143 4.8 16.1 0.03 0.15 0.15 94 1011.2
20260502181543 8 136 3.2 12.9 0.05 0.15 0.15 94 1011.1
20260502180104 8 166 3.2 8.0 0.05 0.15 0.15 94 1011.1
20260502163039 9 141 3.2 9.7 0.05 0.05 0.05 89 1011.4
20260502161539 10 206 3.2 9.7 0.03 0.03 0.03 88 1011.5
20260502151555 11 150 1.6 4.8 0.00 0.00 0.00 78 1011.5
20260502123042 7 277 3.2 8.0 0.00 0.00 0.00 89 1012.3
20260502121543 7 250 0.0 8.0 0.00 0.00 0.00 90 1012.3
20260502114545 7 200 1.6 9.7 0.00 0.00 0.00 90 1011.9
20260502113044 7 0 0.0 6.4 0.00 0.00 0.00 90 1011.8
20260502111554 7 278 1.6 11.3 0.00 0.00 0.00 90 1011.8
20260502110048 6 104 0.0 6.4 0.00 0.00 0.00 90 1011.5
20260502104545 6 171 0.0 8.0 0.00 0.00 0.00 90 1011.5
20260502103050 6 201 1.6 8.0 0.00 0.00 0.00 90 1011.5
20260502101605 6 198 0.0 4.8 0.00 0.00 0.00 90 1011.2
20260502070044 7 0 1.6 4.8 0.00 0.00 0.00 80 1011.2
20260502064547 7 246 0.0 6.4 0.00 0.00 0.00 79 1011.3
20260502063042 7 231 0.0 6.4 0.00 0.00 0.00 78 1011.3
20260502061539 7 0 1.6 9.7 0.00 0.00 0.00 76 1011.5
20260502060047 8 212 3.2 12.9 0.00 0.00 0.00 74 1011.6
20260502054547 8 262 3.2 12.9 0.00 0.00 0.00 72 1011.6
20260502053053 8 227 3.2 14.5 0.00 0.00 0.00 71 1011.8
20260502051555 8 243 6.4 16.1 0.00 0.00 0.00 71 1011.9
20260502050042 8 231 3.2 11.3 0.00 0.00 0.00 72 1011.8
20260502044541 8 155 1.6 8.0 0.00 0.00 0.00 73 1011.9
20260502043051 8 229 3.2 9.7 0.00 0.00 0.00 72 1012.0
20260502041546 8 0 3.2 12.9 0.00 0.00 0.00 73 1012.0
20260502040049 8 213 1.6 8.0 0.00 0.00 0.00 73 1012.1
20260502034551 8 219 1.6 9.7 0.00 0.00 0.00 73 1012.1
20260502033047 8 272 1.6 8.0 0.00 0.00 0.00 74 1012.3